Simultaneous Nadir Overpasses (SNOs) Predictions

Prediction of SNOs between NPP and TERRA Satellite Orbit:

Table of predicted SNOs for the next 14.0 days since TLE Epoch: 8/1/2015
Index Date (NPP) Time (NPP) Lat,Lon (NPP) SZA (NPP ) Date (TERRA) Time (TERRA) Lat,Lon (TERRA) SZA (TERRA ) Distance(km) Time Diff (sec)
1 08/01/2015 16:45:02 68.79, -72.11 50.73 08/01/2015 16:46:03 68.81, -72.14 50.74 2.23 61
2 08/01/2015 17:35:44 -68.70, 95.33 129.36 08/01/2015 17:35:33 -68.70, 95.35 129.36 0.75 11
3 08/01/2015 18:26:19 68.10, -96.59 50.04 08/01/2015 18:25:08 68.14, -97.68 50.11 45.37 71
4 08/04/2015 09:01:54 68.75, 43.72 51.38 08/04/2015 09:02:32 68.77, 43.69 51.40 2.47 38
5 08/04/2015 09:52:36 -68.65,-148.84 128.71 08/04/2015 09:52:02 -68.66,-148.81 128.70 1.70 34
6 08/07/2015 00:28:15 -69.51, -8.87 127.13 08/07/2015 00:29:24 -69.39, -7.27 127.28 63.82 69
7 08/07/2015 01:18:46 68.71, 159.54 52.07 08/07/2015 01:19:01 68.72, 159.52 52.08 1.72 15
8 08/07/2015 02:09:28 -68.61, -33.01 128.03 08/07/2015 02:08:31 -68.62, -32.98 128.02 1.58 57
9 08/09/2015 16:44:54 -68.83, 107.85 127.07 08/09/2015 16:46:01 -68.84, 107.90 127.06 2.52 67
10 08/09/2015 17:35:37 68.67, -84.63 52.79 08/09/2015 17:35:29 68.66, -84.67 52.78 1.70 8
11 08/09/2015 18:26:15 -68.36, 83.09 127.53 08/09/2015 18:25:02 -68.40, 82.64 127.48 19.34 73
12 08/12/2015 09:01:46 -68.79,-136.33 126.32 08/12/2015 09:02:30 -68.78,-136.29 126.34 2.50 44
13 08/12/2015 09:52:29 68.64, 31.18
